Station;Date;Pluviom�trie;T min;T max;T moy;Heure de T Min;Heure de T Max;Humidit� relative mini;Humidit� relative maxi;Humidit� relative moy;Instant de l'Humidit� r. mini;Instant de l'Humidit� r. maxi;Dur�e pdt laquelle U<40%;Dur�e pdt laquelle 80%<U<90%;Dur�e pdt laquelle U>=90%;Maximun precipitation;Instant Max precipitation;Dur�e de mouillage-Humectation;Cumul vent (en km) ;Vent (m/s);Instant du vent max;Cumul en J du rayonnement global;Temperature moy Nocturne;Temperature moy Diume
Sigloy;08/04/1999;0;6.2;15.2;10.2;05:42;14:30;63.5;97;81.5;15:36;23:30;00:00;05:18;08:12;0;00:00;01:30;0;0;;0;0;0
Sigloy;09/04/1999;0;0.8;18.7;10;05:36;14:48;52.5;100.5;81.5;14:54;08:06;00:00;01:48;11:54;0;00:00;06:00;0;0;;0;0;0
Sigloy;10/04/1999;0.5;3.2;15.7;9.9;02:54;14:06;74;102;93;16:48;10:18;00:00;05:48;15:54;5;22:30;12:42;0;0;;0;0;0
Sigloy;11/04/1999;1.5;4.3;14.1;8.8;05:30;13:48;57.5;99;83;16:06;07:24;00:00;03:30;11:12;5;05:54;00:42;0;0;;0;0;0
Sigloy;12/04/1999;7.5;5.3;14.7;9;22:54;13:48;66.5;100.5;91.5;13:36;11:12;00:00;02:48;17:42;10;03:30;08:06;0;0;;0;0;0
Sigloy;13/04/1999;3;6.4;13;8;04:24;15:06;59.5;99.5;85.5;15:42;08:30;00:00;07:54;09:30;10;07:54;05:36;0;0;;0;0;0
Sigloy;14/04/1999;22;3.5;10;5.6;16:24;11:12;87.5;104;97.5;00:06;20:42;00:00;00:36;23:30;15;13:48;18:30;0;0;;0;0;0
Sigloy;15/04/1999;4.5;2.3;11.3;4.3;16:30;13:00;59;99.5;89.5;13:24;00:42;00:00;01:30;16:36;15;16:24;10:42;0;0;;0;0;0
Sigloy;16/04/1999;1.5;-1.1;13.9;5.9;04:06;15:06;61;102;89;15:12;06:48;00:00;01:54;15:18;10;18:48;08:54;0;0;;0;0;0
Sigloy;17/04/1999;2;1.6;17;8.1;05:12;15:30;47.5;99.5;80;15:36;07:06;00:00;02:18;10:36;5;01:18;04:18;0;0;;0;0;0
Sigloy;18/04/1999;0.5;2.7;11.4;6.7;05:42;13:00;60.5;100.5;88;13:24;07:42;00:00;01:48;14:30;5;19:06;12:00;0;0;;0;0;0
Sigloy;19/04/1999;3.5;-0.9;13.9;7.3;05:06;12:12;46.5;100.5;78.5;14:00;06:42;00:00;01:48;10:18;5;05:54;10:42;0;0;;0;0;0
Sigloy;20/04/1999;5.5;6.9;13.7;10.7;02:24;15:00;94;102;99.5;00:00;23:54;00:00;00:00;24:00;5;22:36;23:12;0;0;;0;0;0
Sigloy;21/04/1999;2.5;9.6;16.8;11.9;05:24;12:48;70.5;102;92;12:48;00:18;00:00;04:00;17:18;5;18:00;07:30;0;0;;0;0;0
Sigloy;22/04/1999;6.5;8;16.9;11.1;01:00;14:54;67;100;90;14:36;08:30;00:00;05:06;14:18;10;12:36;09:42;0;0;;0;0;0
Sigloy;23/04/1999;2;6.1;15.5;9.5;03:36;13:18;70.5;101;93;14:36;07:30;00:00;02:12;18:48;5;17:48;12:18;0;0;;0;0;0
Sigloy;24/04/1999;0;5.5;15.5;10.1;05:24;15:06;56;97;83;14:24;06:42;00:00;03:42;11:00;0;00:00;00:54;0;0;;0;0;0
Sigloy;25/04/1999;0;3.2;18.6;11.8;04:42;15:12;50;101;79.5;12:36;06:54;00:00;03:30;09:54;0;00:00;07:00;0;0;;0;0;0
Sigloy;26/04/1999;1;10;15;11.8;06:48;12:06;80.5;97;90.5;12:36;07:12;00:00;10:24;13:42;5;14:06;07:36;0;0;;0;0;0
Sigloy;27/04/1999;1;5.7;18.5;12.9;04:12;16:18;75;101;90;18:12;07:00;00:00;07:30;12:18;5;11:00;06:24;0;0;;0;0;0
Sigloy;28/04/1999;0;9.7;19;14.5;04:54;15:24;68;95.5;81;16:24;06:30;00:00;03:42;06:24;0;00:00;00:00;0;0;;0;0;0
Sigloy;29/04/1999;0;11.6;20.6;14.6;06:06;15:30;68.5;98.5;83.5;16:06;22:54;00:00;11:12;04:12;0;00:00;03:48;0;0;;0;0;0
Sigloy;30/04/1999;0;7.8;20.7;13.8;04:00;14:48;62.5;102;87.5;15:00;08:48;00:00;01:48;14:18;0;00:00;10:54;0;0;;0;0;0
Sigloy;01/05/1999;0;5.6;24.1;15.4;05:06;13:18;46;102.5;77.5;15:42;07:24;00:00;03:00;09:06;0;00:00;07:42;0;0;;0;0;0
Sigloy;02/05/1999;0;10.6;24;17.5;04:54;13:24;54.5;95;76;15:06;05:24;00:00;04:30;04:54;0;00:00;00:00;0;0;;0;0;0
Sigloy;03/05/1999;0;11.1;23;17.8;04:30;13:12;54.5;96;72;16:06;05:36;00:00;03:48;03:54;0;00:00;00:00;0;0;;0;0;0
Sigloy;04/05/1999;0;13.8;20.4;16.1;06:48;13:24;66.5;97.5;77;13:30;23:54;00:00;01:36;03:18;0;00:00;00:06;0;0;;0;0;0
Sigloy;05/05/1999;0;10;21;14.8;03:54;12:24;77;102;92;12:54;07:30;00:00;08:30;14:06;0;00:00;05:48;0;0;;0;0;0
Sigloy;06/05/1999;0;11.8;23.6;16.8;03:54;15:18;52.5;97;80.5;14:30;06:06;00:00;05:06;07:54;0;00:00;00:00;0;0;;0;0;0
Sigloy;07/05/1999;3;12.9;25.6;16.8;05:12;09:54;60;101.5;88;10:24;23:54;00:00;09:24;11:00;10;18:06;10:48;0;0;;0;0;0
Sigloy;08/05/1999;0;10.4;20.7;14.1;06:12;14:06;60.5;101.5;85;14:06;03:12;00:00;02:00;12:18;0;00:00;02:00;0;0;;0;0;0
Sigloy;09/05/1999;1;7.4;25;16.8;02:24;14:54;41.5;102;74.5;14:30;06:48;00:00;02:42;08:12;5;05:48;06:54;0;0;;0;0;0
Sigloy;10/05/1999;8.5;13.7;23.4;16.4;06:12;14:00;62;100.5;87.5;14:12;09:54;00:00;11:42;08:24;25;15:18;05:48;0;0;;0;0;0
Sigloy;11/05/1999;6;12;16.5;13.9;07:12;15:36;90;103;99;00:06;23:54;00:00;00:00;24:00;10;17:48;19:24;0;0;;0;0;0
Sigloy;12/05/1999;3.5;11.4;17.3;13;17:48;12:30;79.5;103.5;95.5;11:00;05:54;00:00;05:18;18:48;10;17:42;11:54;0;0;;0;0;0
Sigloy;13/05/1999;2.5;8.6;21.2;13.3;00:12;13:30;65.5;103.5;93;13:36;09:24;00:00;01:36;17:42;5;17:54;15:12;0;0;;0;0;0
Sigloy;14/05/1999;0;10.5;18.5;13.2;04:42;13:36;64;103;87.5;15:48;06:48;00:00;01:48;13:06;0;00:00;06:06;0;0;;0;0;0
Sigloy;15/05/1999;0;7.5;19.2;13.1;00:48;11:18;62;102;84.5;16:18;05:36;00:00;03:00;10:12;0;00:00;07:18;0;0;;0;0;0
Sigloy;16/05/1999;0;7.4;17.1;12.4;04:42;15:24;57;96;75.5;16:42;05:42;00:00;01:18;06:48;0;00:00;00:00;0;0;;0;0;0
Sigloy;17/05/1999;3;7.3;14.2;10.9;04:48;12:42;77.5;102;90;12:36;23:54;00:00;11:42;09:54;10;15:12;11:00;0;0;;0;0;0
Sigloy;18/05/1999;3.5;9;22.2;14.8;04:48;12:42;67.5;104;90.5;12:36;07:54;00:00;01:24;15:42;10;19:18;11:54;0;0;;0;0;0
Sigloy;19/05/1999;3;10.1;21;14.3;04:48;13:42;70.5;103.5;93;11:36;07:12;00:00;03:36;16:30;15;14:54;12:00;0;0;;0;0;0
Sigloy;20/05/1999;0;11.6;13.3;12.6;23:18;20:24;100;102.5;100;00:12;23:54;00:00;00:00;24:00;0;00:00;18:48;0;0;;0;0;0
Sigloy;21/05/1999;0;10.9;20.6;15.1;05:30;14:30;69;102.5;89;15:48;07:18;00:00;03:18;13:24;0;00:00;01:54;0;0;;0;0;0
Sigloy;22/05/1999;0;13.1;18.7;14.3;04:06;10:54;62.5;97.5;82.5;13:18;06:54;00:00;02:00;09:36;0;00:00;00:36;0;0;;0;0;0
Sigloy;23/05/1999;0;4.7;21.5;14.2;04:24;14:36;60.5;101.5;82;15:42;06:18;00:00;01:36;10:36;0;00:00;07:48;0;0;;0;0;0
Sigloy;24/05/1999;0;7.5;22.7;15.8;04:18;10:00;61.5;102.5;85;10:00;06:36;00:00;01:48;11:42;0;00:00;07:42;0;0;;0;0;0
Sigloy;25/05/1999;0;10.8;20.7;14.9;23:30;15:00;67.5;101;87;15:36;05:54;00:00;04:42;11:24;0;00:00;07:06;0;0;;0;0;0
Sigloy;26/05/1999;0;7.1;24;16.9;04:12;14:30;59.5;102.5;81.5;15:30;06:54;00:00;03:30;08:42;0;00:00;06:42;0;0;;0;0;0
Sigloy;27/05/1999;0;11.7;30.3;20.1;03:42;12:18;52;96.5;81;12:18;23:54;00:00;03:42;09:18;0;00:00;04:06;0;0;;0;0;0
Sigloy;28/05/1999;0;11.7;26.3;20;04:48;15:18;59.5;101;80;14:36;05:42;00:00;04:12;08:06;0;00:00;04:12;0;0;;0;0;0
Sigloy;29/05/1999;0;15.9;30.8;23;04:24;14:00;44;99.5;73.5;13:00;05:24;00:00;02:48;07:54;0;00:00;00:00;0;0;;0;0;0
Sigloy;30/05/1999;0;14.2;28.9;21.8;02:06;13:30;58.5;102.5;80.5;15:30;06:48;00:00;02:06;08:54;0;00:00;06:24;0;0;;0;0;0
Sigloy;31/05/1999;0;13.2;25.4;19.8;03:12;15:00;69.5;101.5;88;15:06;07:24;00:00;07:18;09:42;0;00:00;05:00;0;0;;0;0;0
Sigloy;01/06/1999;0;15.4;31.7;21.9;04:30;13:48;60.5;99;86;15:12;05:24;00:00;04:54;12:42;0;00:00;05:36;0;0;;0;0;0
Sigloy;02/06/1999;0.5;15.9;24.5;19;15:30;12:18;58;97.5;84;14:24;01:24;00:00;10:48;07:48;5;15:30;01:00;0;0;;0;0;0
Sigloy;03/06/1999;1;10.3;23.7;16.6;03:48;14:06;55;102;82.5;14:54;05:42;00:00;05:54;08:00;5;04:30;05:06;0;0;;0;0;0
Sigloy;04/06/1999;15.5;12.3;18.2;15.1;05:12;13:18;77.5;99.5;90;12:42;23:54;00:00;08:12;14:24;20;00:48;07:54;0;0;;0;0;0
Sigloy;05/06/1999;1;9.9;20.2;13.7;04:36;14:12;68;103;90;14:36;09:42;00:00;04:36;12:54;5;04:24;07:48;0;0;;0;0;0
Sigloy;06/06/1999;0;11;20.6;14.3;02:36;14:24;53;96;80.5;15:00;05:24;00:00;03:18;10:06;0;00:00;03:48;0;0;;0;0;0
Sigloy;07/06/1999;1;10.1;20.8;13.8;05:06;13:06;68.5;100;89;13:18;05:42;00:00;07:48;11:54;5;14:18;05:42;0;0;;0;0;0
Sigloy;08/06/1999;0;9;18.2;13.1;04:54;13:18;55;101.5;82;13:24;07:24;00:00;02:24;11:24;0;00:00;05:00;0;0;;0;0;0
Sigloy;09/06/1999;0;10.5;23;16.2;21:54;15:00;50.5;99;76;15:06;05:48;00:00;03:24;06:48;0;00:00;00:00;0;0;;0;0;0
Sigloy;10/06/1999;0;10.4;22.7;16.6;04:12;11:48;59;97;80;10:36;05:12;00:00;03:00;09:30;0;00:00;00:00;0;0;;0;0;0
Sigloy;11/06/1999;0;11.2;21.3;15.9;02:36;14:54;58.5;93.5;76;16:42;01:00;00:00;04:18;05:54;0;00:00;00:00;0;0;;0;0;0
Sigloy;12/06/1999;0;8.2;25.1;17.2;04:06;14:00;46;100;76;14:00;06:06;00:00;03:48;07:24;0;00:00;03:06;0;0;;0;0;0
Sigloy;13/06/1999;0;11.6;20.2;14.9;02:18;15:12;60;100;87;14:12;06:24;00:00;02:42;13:30;0;00:00;03:00;0;0;;0;0;0
Sigloy;14/06/1999;0;10.5;22.3;16.1;00:54;16:12;70.5;99;90;17:30;23:54;00:00;04:42;14:00;0;00:00;04:30;0;0;;0;0;0
Sigloy;15/06/1999;0;11.4;26.1;18.9;03:30;15:24;56;102;82;17:12;05:54;00:00;04:42;09:18;0;00:00;06:12;0;0;;0;0;0
Sigloy;16/06/1999;0;12.6;28.2;20.3;04:48;15:00;47;100;76.5;14:54;05:12;00:00;02:24;09:06;0;00:00;04:06;0;0;;0;0;0
Sigloy;17/06/1999;0.5;10.9;27.1;19.9;04:12;14:06;46;102.5;75;14:06;06:18;00:00;00:42;07:48;5;12:54;06:12;0;0;;0;0;0
Sigloy;18/06/1999;0;11.4;22.9;16.9;04:12;11:30;50.5;100;76.5;15:24;06:18;00:00;03:54;06:48;0;00:00;05:18;0;0;;0;0;0
Sigloy;19/06/1999;0;8.8;24.4;17.2;04:24;15:00;38;97;69.5;13:42;05:18;00:06;02:24;07:54;0;00:00;08:00;0;0;;0;0;0
Sigloy;20/06/1999;1.5;10.3;19.8;15.7;23:24;15:48;73;100;88;14:06;06:00;00:00;05:18;11:30;5;03:54;08:42;0;0;;0;0;0
Sigloy;21/06/1999;0;7.9;18.6;13.4;04:00;15:18;50.5;98.5;75.5;10:48;05:00;00:00;02:42;07:12;0;00:00;00:12;0;0;;0;0;0
Sigloy;22/06/1999;0;3.7;21.8;13.1;04:24;13:06;47.5;100;75;14:24;05:36;00:00;02:30;08:24;0;00:00;04:30;0;0;;0;0;0
Sigloy;23/06/1999;0;5.9;23.5;15.7;03:18;13:24;42.5;101;71;12:54;05:42;00:00;03:06;07:18;0;00:00;06:00;0;0;;0;0;0
Sigloy;24/06/1999;0;7.6;26.2;18.4;04:18;14:42;44;99;69;14:48;05:12;00:00;00:48;06:12;0;00:00;03:18;0;0;;0;0;0
Sigloy;25/06/1999;0;11.9;28.8;20.7;04:24;14:24;38;92;63.5;13:42;05:00;01:24;05:18;01:36;0;00:00;00:00;0;0;;0;0;0
Sigloy;26/06/1999;5;13.8;23.5;18.3;03:42;15:36;81.5;101;92;00:00;09:12;00:00;08:48;15:12;30;06:18;04:54;0;0;;0;0;0
Sigloy;27/06/1999;6;13.6;22.2;16;02:30;10:00;73.5;99;93.5;09:48;15:36;00:00;03:12;19:48;35;14:48;04:18;0;0;;0;0;0
Sigloy;28/06/1999;0;9.5;21.6;15.7;02:00;12:24;63;101;84.5;12:30;06:00;00:00;03:30;10:42;0;00:00;00:54;0;0;;0;0;0
Sigloy;29/06/1999;1;13.1;25.1;19.3;03:36;15:06;64.5;99;82.5;15:12;05:24;00:00;04:48;08:24;5;04:18;05:00;0;0;;0;0;0
Sigloy;30/06/1999;0;15;22.5;17.3;04:30;14:48;61;101.5;84.5;17:30;08:00;00:00;04:06;10:54;0;00:00;03:30;0;0;;0;0;0
Sigloy;01/07/1999;0;8.9;26.6;19.1;03:36;14:42;57.5;102.5;80;11:42;05:48;00:00;01:42;10:00;0;00:00;09:36;0;0;;0;0;0
Sigloy;02/07/1999;0;13.5;33.6;24.2;04:18;17:54;40;102.5;72;17:54;05:54;00:00;00:48;07:30;0;00:00;06:06;0;0;;0;0;0
Sigloy;03/07/1999;0;19.2;27.7;21.9;03:36;13:12;63;99;80;13:18;23:54;00:00;06:48;05:42;0;00:00;03:00;0;0;;0;0;0
Sigloy;04/07/1999;10;15.1;27.7;19.5;01:24;13:12;60;102.5;88;13:12;06:12;00:00;01:54;14:12;15;22:30;10:24;0;0;;0;0;0
Sigloy;05/07/1999;0;13.9;26.7;19;03:36;13:30;59.5;104.5;87;15:24;06:48;00:00;03:30;12:54;0;00:00;06:12;0;0;;0;0;0
Sigloy;06/07/1999;0.5;15.2;22.9;18.5;04:54;14:24;69.5;101;90;14:24;06:18;00:00;05:00;13:36;5;15:30;03:54;0;0;;0;0;0
Sigloy;07/07/1999;0;12.9;23.8;18.3;03:24;13:36;61;101.5;82.5;15:30;06:30;00:00;03:06;09:24;0;00:00;00:00;0;0;;0;0;0
Sigloy;08/07/1999;0;12.6;26.2;19.8;03:54;14:18;59.5;101.5;80;17:06;06:06;00:00;03:30;08:12;0;00:00;00:00;0;0;;0;0;0
Sigloy;09/07/1999;0;14.6;28;21;04:06;15:12;46.5;96.5;72.5;15:30;05:12;00:00;03:18;05:54;0;00:00;00:00;0;0;;0;0;0
Sigloy;10/07/1999;0;14.7;26.8;20.9;04:54;15:06;62.5;97;80;15:12;23:54;00:00;04:54;07:24;0;00:00;01:42;0;0;;0;0;0
Sigloy;11/07/1999;13;18.7;30.1;22.3;05:48;14:30;58.5;103;90;14:36;20:36;00:00;01:36;16:12;55;15:48;05:00;0;0;;0;0;0
Sigloy;12/07/1999;0;17;30.5;23.4;04:42;14:12;57.5;104;85.5;14:12;05:30;00:00;02:06;12:12;0;00:00;05:06;0;0;;0;0;0
Sigloy;13/07/1999;10;18.7;24.7;20.7;04:54;16:06;83;103;95;16:18;13:30;00:00;04:18;19:48;15;10:30;04:36;0;0;;0;0;0
Sigloy;14/07/1999;0;14.8;24.4;18.9;03:12;15:48;54.5;99;79;15:54;05:36;00:00;03:18;08:06;0;00:00;00:00;0;0;;0;0;0
Sigloy;15/07/1999;0;15.1;25.3;19.4;04:48;14:24;63;95.5;81.5;15:30;22:36;00:00;03:48;09:24;0;00:00;00:00;0;0;;0;0;0
Sigloy;16/07/1999;0;10.9;25.8;18.7;04:48;15:30;52;96;76;15:24;05:18;00:00;04:36;06:36;0;00:00;00:00;0;0;;0;0;0
Sigloy;17/07/1999;0;11.4;30.3;21.4;04:18;15:54;40.5;100;72.5;15:54;05:36;00:00;02:48;08:30;0;00:00;02:42;0;0;;0;0;0
Sigloy;18/07/1999;1;14.6;33.4;23.4;02:54;15:12;44.5;100;78;13:18;06:12;00:00;02:00;11:18;5;00:18;04:18;0;0;;0;0;0
Sigloy;19/07/1999;0;17.4;27.8;21.3;03:18;15:36;52.5;103;83;15:24;06:54;00:00;04:00;10:48;0;00:00;05:24;0;0;;0;0;0
Sigloy;20/07/1999;0;13.3;28;21.3;04:24;14:06;63;101.5;83;14:12;05:42;00:00;04:30;07:42;0;00:00;01:06;0;0;;0;0;0
Sigloy;21/07/1999;0;17.7;24;19.3;04:42;14:42;52.5;97;74.5;14:54;04:54;00:00;02:48;06:36;0;00:00;02:42;0;0;;0;0;0
Sigloy;22/07/1999;0;11.5;22.3;16.1;02:18;14:06;52.5;94;73;14:42;23:54;00:00;08:48;01:00;0;00:00;02:06;0;0;;0;0;0
Sigloy;23/07/1999;0;10.3;21.9;15.8;00:18;15:48;57.5;98;78.5;15:54;03:12;00:00;04:06;07:24;0;00:00;06:48;0;0;;0;0;0
Sigloy;24/07/1999;0;6.9;26.8;18.1;04:18;15:36;45;101;72.5;14:42;06:18;00:00;03:06;07:12;0;00:00;06:06;0;0;;0;0;0
Sigloy;25/07/1999;0;13.5;30.9;22.4;03:12;15:36;45.5;96.5;69;15:12;05:12;00:00;02:24;05:06;0;00:00;04:06;0;0;;0;0;0
Sigloy;26/07/1999;0;14.4;31.5;24.3;03:24;14:06;46;97.5;69.5;14:54;05:30;00:00;03:42;04:12;0;00:00;03:42;0;0;;0;0;0
Sigloy;27/07/1999;0;16.8;29.3;23.2;04:48;16:00;57.5;90;73;12:12;05:00;00:00;07:18;00:12;0;00:00;00:00;0;0;;0;0;0
Sigloy;28/07/1999;3;17.5;29.5;23;04:30;15:12;57.5;93.5;74.5;15:18;23:54;00:00;08:36;01:00;10;00:42;02:36;0;0;;0;0;0
Sigloy;29/07/1999;0;16;31.1;22.8;04:36;14:36;42.5;104;77;14:48;06:30;00:00;01:06;11:18;0;00:00;07:42;0;0;;0;0;0
Sigloy;30/07/1999;0;12.8;31.3;22.4;04:00;14:42;36;100;69;13:24;05:18;04:24;01:06;09:36;0;00:00;03:18;0;0;;0;0;0
Sigloy;31/07/1999;0;13.5;32;22.4;04:24;13:12;34.5;102.5;69.5;15:30;06:18;04:24;01:06;09:24;0;00:00;07:42;0;0;;0;0;0
Sigloy;01/08/1999;0;12;32.5;22.3;02:48;14:48;33;102;69;15:00;05:42;06:00;00:54;09:42;0;00:00;08:06;0;0;;0;0;0
Sigloy;02/08/1999;0;13.5;33.4;23;03:36;11:48;36;102;74.5;11:48;06:18;00:36;01:00;10:30;0;00:00;09:42;0;0;;0;0;0
Sigloy;03/08/1999;0;16.9;28.3;20.8;05:06;14:36;51.5;102.5;82.5;15:18;06:18;00:00;01:54;11:48;0;00:00;04:48;0;0;;0;0;0
Sigloy;04/08/1999;14.5;13.4;32.1;22.4;03:48;13:54;53.5;103.5;82;14:00;23:48;00:00;00:42;12:24;110;18:18;06:30;0;0;;0;0;0
Sigloy;05/08/1999;0;18;27.9;21.2;05:54;15:12;47;104;81;15:12;02:24;00:00;01:12;12:12;0;00:00;02:00;0;0;;0;0;0
Sigloy;06/08/1999;10;14.3;30.2;19.7;03:30;12:54;58;104;91;14:42;23:54;00:00;03:24;16:24;30;15:12;07:54;0;0;;0;0;0
Sigloy;07/08/1999;8;15.2;28.5;21.7;04:54;15:06;58.5;105;83.5;15:18;07:54;00:00;04:30;09:54;20;23:48;04:54;0;0;;0;0;0
Sigloy;08/08/1999;14.5;15.3;26.9;19;14:12;12:36;56.5;103.5;92.5;13:06;07:48;00:00;01:06;18:36;60;14:12;08:30;0;0;;0;0;0
Sigloy;09/08/1999;12.5;13.3;25.6;18.3;05:06;11:06;71;104;94;11:12;06:54;00:00;02:06;18:24;45;17:36;15:06;0;0;;0;0;0
Sigloy;10/08/1999;0;16.1;23.9;18.4;04:12;14:06;71;103;91.5;14:18;06:12;00:00;04:48;14:24;0;00:00;05:36;0;0;;0;0;0
Sigloy;11/08/1999;0;13.4;21.2;16.9;01:30;15:00;70;109.5;90.5;14:48;08:00;00:00;04:24;14:36;0;00:00;07:36;0;0;;0;0;0
Sigloy;12/08/1999;0;12;22.6;16.8;03:42;12:54;60.5;102.5;83.5;16:30;08:12;00:00;03:42;10:06;0;00:00;05:42;0;0;;0;0;0
Sigloy;13/08/1999;0;7.5;25.5;17.3;05:12;14:18;55;102.5;80.5;14:18;06:30;00:00;04:54;08:54;0;00:00;04:12;0;0;;0;0;0
Sigloy;14/08/1999;3;14.6;20;17.4;02:36;16:06;89;102;98;00:00;20:54;00:00;00:18;23:48;10;17:12;11:48;0;0;;0;0;0
Sigloy;15/08/1999;0;11.4;21.8;16.5;03:30;15:18;65;101;85.5;15:24;06:06;00:00;04:18;10:54;0;00:00;00:18;0;0;;0;0;0
Sigloy;16/08/1999;0;13;21.6;16.7;05:30;16:12;71.5;102.5;89.5;16:24;08:06;00:00;02:42;13:30;0;00:00;07:48;0;0;;0;0;0
Sigloy;17/08/1999;3;12.4;22.7;16.7;04:30;13:36;59;102.5;85.5;13:42;08:12;00:00;05:12;10:24;5;05:36;00:00;0;0;;0;0;0
Sigloy;18/08/1999;0.5;15;22.5;17.5;05:00;14:42;58.5;101;82.5;17:54;07:12;00:00;05:48;07:42;5;12:18;03:48;0;0;;0;0;0
Sigloy;19/08/1999;0;11.3;22.4;15.8;05:12;14:54;59;101;84;15:00;06:30;00:00;02:06;12:00;0;00:00;02:12;0;0;;0;0;0
Sigloy;20/08/1999;0;6.6;24;15.5;04:48;15:12;49.5;103.5;82;16:36;07:36;00:00;01:30;12:48;0;00:00;09:12;0;0;;0;0;0
Sigloy;21/08/1999;0;10.6;24;17.4;23:30;14:00;52.5;100;76.5;16:00;00:24;00:00;01:00;07:36;0;00:00;01:30;0;0;;0;0;0
Sigloy;22/08/1999;0;10.8;24.8;17.6;05:24;15:00;50;96;73;14:00;06:42;00:00;04:36;04:54;0;00:00;04:18;0;0;;0;0;0
Sigloy;23/08/1999;0;12.8;27.8;18.8;02:54;12:42;60.5;98;82;14:12;23:54;00:00;07:42;07:42;0;00:00;07:06;0;0;;0;0;0
Sigloy;24/08/1999;0;13.3;31.4;22.4;05:06;14:30;48;102.5;80;14:12;07:24;00:00;02:24;10:54;0;00:00;09:18;0;0;;0;0;0
Sigloy;25/08/1999;2;16.2;36.5;25.4;05:54;14:00;40.5;99.5;78.5;15:00;06:42;00:00;02:30;10:36;15;03:48;09:36;0;0;;0;0;0
Sigloy;26/08/1999;0;19.2;28.2;21.6;06:18;14:30;60;103.5;87.5;14:36;08:42;00:00;01:54;14:24;0;00:00;07:48;0;0;;0;0;0
Sigloy;27/08/1999;0;14.6;26.6;19.9;05:00;13:24;58.5;102;82;17:12;06:18;00:00;03:24;08:54;0;00:00;00:00;0;0;;0;0;0
Sigloy;28/08/1999;0;14.2;25.6;19.3;05:48;13:36;53.5;88.5;74;14:48;02:36;00:00;09:36;00:00;0;00:00;00:06;0;0;;0;0;0
Sigloy;29/08/1999;0;10.8;26.5;18.2;04:36;14:24;46.5;99;77;15:06;06:24;00:00;05:06;07:48;0;00:00;02:42;0;0;;0;0;0
Sigloy;30/08/1999;0;9;28.1;18.4;05:24;14:12;47.5;103;77.5;14:18;07:00;00:00;04:48;08:30;0;00:00;07:06;0;0;;0;0;0
Sigloy;31/08/1999;0;11;26.8;18.4;05:12;14:12;51;101.5;80.5;14:54;07:18;00:00;04:12;10:24;0;00:00;03:42;0;0;;0;0;0
Sigloy;01/09/1999;0;11.2;27.5;19.9;06:00;14:36;50;100.5;76;15:48;06:30;00:00;03:36;08:00;0;00:00;02:18;0;0;;0;0;0
Sigloy;02/09/1999;0;10.9;27.5;19.5;05:42;15:30;49;101.5;72.5;15:12;06:30;00:00;00:36;07:48;0;00:00;06:06;0;0;;0;0;0
Sigloy;03/09/1999;0;11.6;25.3;18.2;05:42;15:12;49;85.5;68.5;15:42;05:54;00:00;05:06;00:00;0;00:00;00:00;0;0;;0;0;0
Sigloy;04/09/1999;0;9.2;28.5;19.5;04:54;15:00;44;99.5;75;13:30;06:24;00:00;05:42;06:12;0;00:00;05:00;0;0;;0;0;0
Sigloy;05/09/1999;0;14;31.2;21.1;04:12;14:42;39.5;97;73;13:42;06:30;00:00;04:30;06:30;0;00:00;03:06;0;0;;0;0;0
Sigloy;06/09/1999;0;13.9;27.9;19.9;23:36;14:48;58.5;102;82.5;15:12;00:18;00:00;02:36;11:00;0;00:00;04:12;0;0;;0;0;0
Sigloy;07/09/1999;0;12.4;24.8;17.1;05:42;14:06;56.5;101.5;84.5;14:48;07:06;00:00;01:24;13:12;0;00:00;02:06;0;0;;0;0;0
Sigloy;08/09/1999;0;8.1;28.1;17.7;04:48;14:42;44;103.5;81;15:18;07:00;00:00;01:30;12:42;0;00:00;12:24;0;0;;0;0;0
Sigloy;09/09/1999;0;9;29.5;19.8;05:06;12:48;48;103;79;14:48;07:18;00:00;04:30;08:42;0;00:00;07:18;0;0;;0;0;0
Sigloy;10/09/1999;0;11.6;30;21.3;05:36;13:30;49.5;103;78.5;14:30;07:36;00:00;01:00;10:12;0;00:00;08:42;0;0;;0;0;0
Sigloy;11/09/1999;0;12.9;33;21.7;01:36;14:30;38;101.5;74.5;14:24;07:00;01:18;02:54;09:12;0;00:00;10:30;0;0;;0;0;0
Sigloy;12/09/1999;0;12.9;25.9;18.8;06:00;12:30;63.5;102;87.5;14:12;07:06;00:00;01:30;14:18;0;00:00;11:06;0;0;;0;0;0
Sigloy;13/09/1999;23;14.9;25.1;18.9;00:48;14:24;64.5;101.5;90;14:30;23:54;00:00;02:12;15:12;45;22:36;09:48;0;0;;0;0;0
Sigloy;14/09/1999;2.5;15.5;23.3;17.4;05:00;11:06;76.5;105;93.5;14:18;09:06;00:00;05:06;17:06;5;05:42;08:18;0;0;;0;0;0
Sigloy;15/09/1999;6;13.2;20.4;14.1;07:30;13:54;67.5;103.5;93;15:54;11:18;00:00;01:36;17:48;10;07:12;11:12;0;0;;0;0;0
Sigloy;16/09/1999;3;5.5;23.8;15.4;05:48;14:00;51.5;103.5;82.5;14:30;08:06;00:00;02:54;11:54;5;05:42;10:48;0;0;;0;0;0
Sigloy;17/09/1999;0.5;12.7;20.2;14.4;07:06;14:24;75;103;95;15:30;11:18;00:00;03:00;18:54;5;06:48;08:18;0;0;;0;0;0
Sigloy;18/09/1999;0;9.7;22.6;15.7;05:30;12:54;62.5;104;88.5;13:00;07:30;00:00;03:06;14:06;0;00:00;08:42;0;0;;0;0;0
Sigloy;19/09/1999;43.5;13.4;22.7;16.3;06:42;12:06;70.5;104;91.5;12:12;23:54;00:00;01:42;17:24;40;19:30;11:06;0;0;;0;0;0
Sigloy;20/09/1999;2;12.4;20.5;15.1;03:36;11:54;75;104.5;93;11:54;08:06;00:00;07:24;15:42;10;12:48;09:06;0;0;;0;0;0
Sigloy;21/09/1999;8.5;13.3;19.7;15.7;22:24;12:30;78;103;94.5;13:24;23:54;00:00;05:24;17:18;20;18:30;13:24;0;0;;0;0;0
Sigloy;22/09/1999;10;14.3;21;18.1;18:48;17:00;83;103;95.5;12:54;08:06;00:00;05:54;18:12;10;00:30;06:30;0;0;;0;0;0
Sigloy;23/09/1999;2.5;13.1;26.1;16.9;06:12;13:36;61.5;104;91;13:42;09:06;00:00;01:00;16:54;10;17:42;13:48;0;0;;0;0;0
Sigloy;24/09/1999;1;10.6;25.4;16.7;01:30;11:36;65;104;94;11:12;08:18;00:00;03:36;17:36;5;14:54;12:42;0;0;;0;0;0
Sigloy;25/09/1999;0;13.8;21.2;16.8;22:30;14:12;81.5;104;95.5;14:30;09:24;00:00;05:18;18:36;0;00:00;00:00;0;0;;0;0;0
Sigloy;26/09/1999;0.5;12.1;21.1;15.3;06:06;14:12;69.5;103;94.5;14:12;08:00;00:00;03:00;18:00;5;05:48;15:00;0;0;;0;0;0
Sigloy;27/09/1999;5;12.5;18.1;15.1;21:12;10:36;82;102.5;98;11:00;06:48;00:00;02:24;21:36;10;11:30;13:00;0;0;;0;0;0
Sigloy;28/09/1999;6.5;12.7;19.4;15.7;06:36;13:18;68.5;101.5;91.5;14:12;23:54;00:00;01:36;16:48;10;20:36;09:00;0;0;;0;0;0
Sigloy;29/09/1999;27.5;14.7;17.1;15.7;02:18;13:24;101.5;103.5;100;00:24;23:54;00:00;00:00;24:00;15;18:06;22:36;0;0;;0;0;0
Sigloy;30/09/1999;1.5;13.9;18.6;15.6;06:06;14:24;73.5;103.5;90.5;13:36;08:12;00:00;07:30;11:30;10;07:18;07:48;0;0;;0;0;0
Sigloy;01/10/1999;0;12.4;19;15.1;00:18;11:54;72;95.5;88;12:06;20:30;00:00;05:30;14:18;0;00:00;00:12;0;0;;0;0;0
Sigloy;02/10/1999;6;13.4;16.9;13.9;17:54;14:42;94;101;98.5;00:06;23:54;00:00;00:00;24:00;10;16:48;20:42;0;0;;0;0;0
Sigloy;03/10/1999;1;8;16.4;10.6;04:00;14:00;66.5;102.5;92.5;14:12;07:54;00:00;03:18;16:48;5;15:00;07:54;0;0;;0;0;0
Sigloy;04/10/1999;3;7.3;13.4;8.5;05:42;12:00;72.5;102;94;12:18;09:24;00:00;04:18;17:36;20;14:12;10:48;0;0;;0;0;0
Sigloy;05/10/1999;0;0.7;14.6;6.7;03:48;14:12;59;102.5;89.5;13:48;08:48;00:00;02:00;16:24;0;00:00;15:00;0;0;;0;0;0
Sigloy;06/10/1999;0;-0.6;14.7;6.7;05:54;13:48;64;102.5;89;15:30;07:42;00:00;02:24;15:12;0;00:00;12:42;0;0;;0;0;0
Sigloy;07/10/1999;0;-0.7;16.6;6.7;06:00;13:30;55.5;102.5;88;14:30;08:36;00:00;01:06;16:42;0;00:00;13:24;0;0;;0;0;0
Sigloy;08/10/1999;0;1.6;16.7;11.2;00:18;12:48;78.5;102.5;93;15:18;08:36;00:00;06:36;17:06;0;00:00;08:30;0;0;;0;0;0
Sigloy;09/10/1999;0;11;15.7;12.9;05:00;11:54;76;100.5;90.5;13:30;07:54;00:00;04:06;14:54;0;00:00;00:00;0;0;;0;0;0
Sigloy;10/10/1999;0;10.5;19.7;14;06:06;13:12;62;99;88;13:24;08:12;00:00;02:18;14:30;0;00:00;00:00;0;0;;0;0;0
Sigloy;11/10/1999;0;12.1;18.4;14.4;06:36;13:24;87.5;102;97;14:12;23:54;00:00;01:42;22:18;0;00:00;06:36;0;0;;0;0;0
Sigloy;12/10/1999;0;11;15.7;12.4;17:54;10:42;87;102;96.5;16:06;08:48;00:00;03:36;20:24;0;00:00;12:18;0;0;;0;0;0
Sigloy;13/10/1999;0;8.7;12.3;10.4;02:00;15:06;97.5;102.5;99.5;18:00;11:24;00:00;00:00;24:00;0;00:00;13:42;0;0;;0;0;0
Sigloy;14/10/1999;0;8.5;19;12.3;20:00;14:36;70;103;93.5;15:36;09:48;00:00;02:24;18:12;0;00:00;08:18;0;0;;0;0;0
Sigloy;15/10/1999;0;6.7;16.5;10.9;06:48;14:36;95;102.5;99;16:42;12:54;00:00;00:00;24:00;0;00:00;10:48;0;0;;0;0;0
Sigloy;16/10/1999;0;6.4;16.1;10;06:18;15:00;78.5;104.5;97;16:12;11:36;00:00;01:54;21:18;0;00:00;12:42;0;0;;0;0;0
Sigloy;17/10/1999;0;4.5;10.1;7.5;04:48;16:42;95;103;99.5;23:54;14:00;00:00;00:00;24:00;0;00:00;14:12;0;0;;0;0;0
Sigloy;18/10/1999;0;3.9;12.1;7.3;06:42;13:00;66;96;82;15:36;03:18;00:00;03:06;08:54;0;00:00;00:00;0;0;;0;0;0
Sigloy;19/10/1999;1;3.2;9.1;6.2;02:12;15:12;84;98.5;91;00:12;23:54;00:00;08:54;15:06;5;23:36;06:18;0;0;;0;0;0
Sigloy;20/10/1999;8;6;14.7;11.2;22:12;15:48;87;104.5;98;17:00;09:30;00:00;02:06;21:54;10;23:30;16:42;0;0;;0;0;0
Sigloy;21/10/1999;1.5;9;18.9;13.2;06:24;12:54;78;103;95;13:06;11:12;00:00;04:42;19:00;5;05:30;08:12;0;0;;0;0;0
Sigloy;22/10/1999;5.5;11.2;16.2;12.8;07:30;13:42;90.5;102;98;00:00;09:30;00:00;00:00;24:00;10;11:24;14:54;0;0;;0;0;0
Sigloy;23/10/1999;2;9.6;17.5;13;00:30;14:00;76;102.5;93;14:36;03:06;00:00;06:54;15:36;5;05:24;10:12;0;0;;0;0;0
Sigloy;24/10/1999;4.5;10;17;12.6;22:12;13:48;72.5;98.5;90.5;14:18;11:00;00:00;07:06;14:42;10;02:12;07:18;0;0;;0;0;0
Sigloy;25/10/1999;0;8.9;18.6;12.9;18:36;14:00;71.5;101;90.5;14:18;08:12;00:00;05:12;14:54;0;00:00;06:12;0;0;;0;0;0
Sigloy;26/10/1999;0;9.5;18.2;11.6;17:48;14:30;65.5;101;91;14:30;09:00;00:00;01:12;16:54;0;00:00;09:48;0;0;;0;0;0